RYR1028 LIMC-LICJ

Flight info

Callsign RYR1028
Flight time N/A
Altitude 39000
Route ROBAS DCT EKDIR DCT LURON
Aircraft B738/M-SDE2E3FGHIRWXY/LB1

Departure

Time 2026-04-30 13:26
Airport Milan Malpensa International Airport (LIMC)

Arrival

Time N/A
Airport Falcone–Borsellino Airport (LICJ)
Time Latitude Longitude Altitude Speed Heading
2026-04-30 13:00 45.63086 8.71813 748 ft 0 kts 79°
2026-04-30 13:15 45.63090 8.71841 750 ft 4 kts 79°
2026-04-30 13:15 45.63096 8.71895 750 ft 4 kts 95°
2026-04-30 13:16 45.63068 8.71916 749 ft 6 kts 164°
2026-04-30 13:16 45.63015 8.71931 749 ft 10 kts 169°
2026-04-30 13:16 45.62915 8.71959 751 ft 19 kts 169°
2026-04-30 13:17 45.62682 8.72087 751 ft 16 kts 109°
2026-04-30 13:17 45.62590 8.72158 747 ft 17 kts 169°
2026-04-30 13:17 45.62302 8.72238 746 ft 21 kts 169°
2026-04-30 13:18 45.62228 8.72364 749 ft 19 kts 79°
2026-04-30 13:18 45.62281 8.72752 747 ft 20 kts 79°
2026-04-30 13:18 45.62306 8.72939 750 ft 19 kts 83°
2026-04-30 13:19 45.62231 8.73040 749 ft 17 kts 169°
2026-04-30 13:19 45.62120 8.73072 749 ft 16 kts 168°
2026-04-30 13:19 45.62012 8.73102 750 ft 15 kts 169°
2026-04-30 13:19 45.61909 8.73130 752 ft 15 kts 170°
2026-04-30 13:20 45.61811 8.73155 750 ft 14 kts 170°
2026-04-30 13:20 45.61732 8.73225 749 ft 13 kts 126°
2026-04-30 13:20 45.61681 8.73334 751 ft 13 kts 124°
2026-04-30 13:20 45.61639 8.73420 752 ft 8 kts 124°
2026-04-30 13:21 45.61634 8.73432 752 ft 0 kts 124°
2026-04-30 13:24 45.61589 8.73529 748 ft 9 kts 116°
2026-04-30 13:24 45.61608 8.73726 742 ft 8 kts 27°
2026-04-30 13:25 45.62066 8.73613 744 ft 91 kts 349°
2026-04-30 13:25 45.64015 8.73081 1167 ft 165 kts 348°
2026-04-30 13:26 45.67164 8.74552 2778 ft 205 kts 51°
2026-04-30 13:26 45.69030 8.77833 3836 ft 218 kts 51°
2026-04-30 13:27 45.70965 8.81176 5253 ft 220 kts 50°
2026-04-30 13:28 45.71885 8.87516 7035 ft 241 kts 118°
2026-04-30 13:28 45.69656 8.91482 7863 ft 276 kts 131°
2026-04-30 13:28 45.68367 8.93563 8526 ft 282 kts 131°
2026-04-30 13:29 45.65730 8.97819 10060 ft 290 kts 130°
2026-04-30 13:29 45.62943 9.02337 10923 ft 323 kts 130°
2026-04-30 13:30 45.58346 9.09817 13017 ft 340 kts 129°
2026-04-30 13:31 45.55187 9.14960 14535 ft 349 kts 129°
2026-04-30 13:31 45.50322 9.22864 16776 ft 361 kts 129°
2026-04-30 13:32 45.46965 9.28307 18171 ft 370 kts 129°
2026-04-30 13:32 45.43524 9.33874 19535 ft 378 kts 129°
2026-04-30 13:33 45.40006 9.39554 20784 ft 387 kts 129°
2026-04-30 13:33 45.36408 9.45351 22004 ft 394 kts 129°
2026-04-30 13:34 45.34581 9.48290 22599 ft 398 kts 129°
2026-04-30 13:34 45.28998 9.57256 24206 ft 410 kts 129°
2026-04-30 13:35 45.27100 9.60295 24720 ft 413 kts 129°
2026-04-30 13:35 45.23256 9.66446 25686 ft 420 kts 129°
2026-04-30 13:36 45.19293 9.72628 26620 ft 428 kts 134°
2026-04-30 13:36 45.16960 9.75301 27033 ft 434 kts 142°
2026-04-30 13:36 45.11996 9.80266 27893 ft 440 kts 143°